Location: Unspecified
(0.0000°N, 0.0000°E)
Time: 18:21:46
(UTC+00:00)

YUBILEINY - Pass Details

Date: 12 December 2017
Orbit: 1479 x 1508 km, 82.5° (Epoch: 25 April)

Event Time Altitude Azimuth Distance (km) Brightness Sun altitude
Rises 01:36:40 0° 151° (SSE) 4,613 ? -55.9°
Reaches altitude 10° 01:40:46 10° 133° (SE) 3,636 ? -55.2°
Enters shadow 01:46:07 19° 95° (E) 3,020 ? -54.2°
